User: anonymous   Login
Location: Oronoko Observatory
(41.9167°N, 86.3833°W)
Time: 09:25:00
(UTC-04:00)
Language:

PAYLOAD A - Orbit

View from above orbital plane
View from above orbital plane
View from above satellite
View from above satellite

Ground track
Ground track

The orbit data is extracted from the following two-line orbital elements,

1 27840U 03031A   17265.10253039 -.00000018  00000-0  77561-5 0  9993
2 27840  98.2113 258.4661 0098088 186.2028 173.7953 14.38888236747250
Epoch (UTC): 22 September 2017 02:27:38
Eccentricity: 0.0098088
inclination: 98.2113°
perigee height: 692 km
apogee height: 832 km
right ascension of ascending node: 258.4661°
argument of perigee: 186.2028°
revolutions per day: 14.38888236
mean anomaly at epoch: 173.7953°
orbit number at epoch: 74725

The dashed part of the orbit path shows where the satellite is in the earth's shadow,  

DLR